SCP
1 1 1 1 1 1 1 1 0 0 0 0 0 0 0 0 0 0 0 0 0 0 0 0 0 0 0 0 0 0 0 0 0 0 0 0 0 0
0 0 0 0 1 0 0 0 0 0 0 0 0 0 0 0 0 0 0 0 0 0 0 0 0 0 0 0 0 0 0 0 0 0 0 0 0 0
0 0 0 0 0 0 0 0 0 0 0 0 0 0 0 0 0 0 0 0 0 0 0 0 0 0 0 0 0 0 0 0 0 0 0 0 0 0
0 0 0 0 0 0 0 0 0 0 0 0 0 0 0 0 0 0 0 0 0 0 0 0 0 0 0 0 0 0 0 0 0 0 0 0 0 0
0 0 0 0 0 0 0 0 0 0 0 0 0 0 0 0 0 0 0 0 0 0 0 0 0 0 0 0 0 0 0 0 0 0 0 0 0 0
0 0 0 0 0 0 0 0 0 0 0 0 0 0 0 0 0 0 0 0 0 0 0 0 0 0 0 0 0 0 0 0 0 0 0 0 0 0
0 0 0 0 0 0 0 0 0 0 0 0 0 0 0 0 0 0 0 0 0 0 0 0 0 0 0 0 0 0 0 0 0 0 0 0 0 0
0 0 0 0 0 0 0 0 0 0 0 0 0 0 0 0 0 0 0 0 0 0 0 0 0 0 0 0 0 0 0 0 0 0 0 0 0 0
0 0 0 0 0 0 0 0 0 0 0 0 0 0 0 0 0 0 0 0 0 0 0 0 0 0 0 0 0 0 0 0 0 0 0 0 0 0
0 0 0 0 0 0 0 0 0 0 0 0 0 0 0 0 0 0 0 0 0 0 0 0 0 0 0 0 0 0 0 0 0 0 0 0 0 0
0 0 0 0 0 0 0 0 0 0 0 0 0 0 0 0 0 0 0 0 0 0 0 0 0 0 0 0 0 0 0 0 0 0 0 0 0 0
0 0 0 0 0 0 0 0 0 0 0 0 0 0 0 0 0 0 0 0 0 0 0 0 0 0 0 0 0 0 0 0 0 0 0 0 0 0
0 0 0 0 0 0 0 0 0 0 0 0 0 0 0 0 0 0 0 0 0 0 0 0 0 0 0 0 0 0 0 0 0 0 0 0 0 0
0 0 0 0 0 0 0 0 0 0 0 0 0 0 0 0 0 0 0 0 0 0 0 0 0 0 0 0 0 0 0 0 0 0 0 0 0 0
0 0 0 0 0 0 0 0 0 0 0 0 0 0 0 0 0 0 0 0 0 0 0 0 0 0 0 0 0 0 0 0 0 0 0 0 0 0
0 0 0 0 0 0 0 0 0 0 0 0 0 0 0 0 0 0 0 0 0 0 0 0 0 0 0 0 0 0 0 0 0 0 0 0 0 0
0 0 0 0 0 0 0 0 0 0 0 0 0 0 0 0 0 0 0 0 0 0 0 0 0 0 0 0 0 0 0 0 0 0 0 0 0 0
0 0 0 0 0 0 0 0 0 0 0 0 0 0 0 0 0 0 0 0 0 0 0 0 0 0 0 0 0 0 0 0 0 0 0 0 0 0
0 0 0 0 0 0 0 0 0 0 0 0 0 0 0 0 0 0 0 0 0 0 0 0 0 0 0 0 0 0 0 0 0 0 0 0 0 0
0 0 0 0 0 0 0 0 0 0 0 0 0 0 0 0 0 0 0 0 0 0 0 0 0 0 0 0 0 0 0 0 0 0 0 0 0 0
0 0 0 0 0 0 0 0 0 0 0 0 0 0 0 0 0 0 0 0 0 0 0 0 0 0 0 0 0 0 0 0 0 0 0 0 0 0
0 0 0 0 0 0 0 0 0 0 0 0 0 0 0 0 0 0 0 0 0 0 0 0 0 0 0 0 0 0 0 0 0 0 0 0 0 0
0 0 0 0 0 0 0 0 0 0 0 0 0 0 0 0 0 0 0 0 0 0 0 0 0 0 0 0 0 0 0 0 0 0 0 0 0 -0
Wind_Speed_500mb
71 73 71 73 77 84 83 81 74 38 26 42 45 53 50 50 55 63 61 55 45 48 55 69 77 77 77 76 74 66 65 64 60 58 58 54 53 55
48 60 72 75 67 63 77 84 60 26 36 50 56 57 55 53 53 56 63 53 53 51 59 64 73 77 79 78 78 74 70 66 61 59 58 58 59 58
45 50 53 52 50 48 68 79 61 52 50 70 60 62 65 57 58 54 60 60 55 55 59 58 68 80 82 82 80 80 74 68 64 61 61 61 61 63
40 39 45 43 46 35 35 46 52 51 54 63 66 61 78 67 72 76 76 65 56 61 60 59 64 75 81 84 85 84 77 70 64 57 57 61 65 63
38 39 40 40 41 42 41 38 40 39 45 63 61 67 69 75 70 66 77 79 72 74 65 61 61 77 83 89 90 86 78 71 60 56 55 59 64 65
35 35 36 39 39 39 37 40 44 46 45 47 45 49 53 69 74 76 72 70 77 77 79 77 75 79 90 93 95 92 83 69 61 54 52 58 63 67
30 32 33 32 33 37 39 42 42 43 42 42 42 42 46 48 39 60 73 71 79 79 79 84 91 87 88 101 99 92 79 66 59 54 54 56 60 64
33 33 33 32 33 35 35 35 36 40 41 40 42 43 40 37 38 42 54 64 86 82 81 85 93 94 98 110 101 78 63 56 53 57 64 64 66 71
32 34 35 36 35 34 32 31 26 24 26 28 27 31 32 37 43 39 37 40 50 42 48 65 68 76 93 87 61 50 49 45 48 50 58 64 72 78
34 37 37 34 32 33 33 31 31 31 29 23 21 22 24 24 24 21 20 16 15 25 23 40 54 53 44 42 42 42 45 48 50 55 73 73 75 77
36 35 37 38 36 32 34 33 30 30 27 26 24 28 32 37 39 40 38 30 23 16 11 5 24 33 40 45 53 52 44 43 53 67 68 66 67 69
38 35 29 31 34 36 37 37 37 35 37 33 28 25 23 19 15 12 14 18 22 23 29 33 31 36 37 46 38 30 34 46 49 45 48 51 47 52
42 43 40 34 30 31 37 39 41 41 39 36 33 27 23 19 14 17 15 12 7 12 10 15 15 20 18 12 20 29 38 36 31 32 37 39 40 52
43 44 43 39 34 32 33 36 42 42 37 36 34 30 24 17 15 15 16 13 11 15 14 11 12 17 20 22 22 21 23 21 27 27 34 38 46 62
43 40 38 36 35 33 35 39 39 36 34 33 31 28 23 19 16 14 13 12 11 9 7 12 18 20 21 23 25 28 22 21 23 33 36 33 52 47
49 47 39 38 35 36 36 33 31 30 29 28 29 25 21 18 17 16 14 13 16 19 21 20 22 23 25 27 27 24 18 17 15 23 25 28 32 22
50 50 47 44 41 39 36 31 29 27 26 24 23 23 20 21 20 15 18 19 21 19 18 21 20 23 23 19 18 14 17 13 12 19 14 21 16 20
47 47 46 46 42 40 40 38 31 28 25 24 24 23 23 24 24 22 21 21 22 22 21 20 20 13 12 13 13 11 8 5 14 18 6 8 17 25
48 46 45 48 49 40 38 37 35 28 25 26 27 26 27 27 25 25 20 22 23 23 21 19 13 12 14 11 9 8 5 11 22 22 17 20 32 32
47 50 48 46 45 44 37 35 32 29 28 28 28 23 24 25 24 22 21 21 21 19 17 15 15 15 12 12 10 12 12 17 24 29 39 47 52 49
48 53 53 51 44 41 35 34 31 28 25 24 23 22 25 21 21 20 17 18 18 16 14 12 13 17 8 10 12 18 20 20 25 38 55 61 64 64
49 55 57 51 38 34 26 24 22 22 20 21 19 21 19 18 19 17 19 20 16 12 8 9 15 19 13 15 22 29 29 27 33 48 60 69 76 68
48 53 53 50 46 33 19 9 10 11 16 18 18 17 15 13 12 15 17 18 14 12 8 14 19 21 16 19 30 35 37 42 50 58 63 53 56 62
Wind_Direction_500mb
291 292 293 292 292 290 287 279 258 248 241 268 266 263 259 257 279 276 268 268 276 273 266 247 245 240 234 235 238 240 244 248 251 254 253 252 253 252
297 294 292 294 298 309 291 272 244 252 270 279 280 279 276 275 292 280 279 278 283 284 276 254 241 234 230 229 233 238 243 244 251 253 251 253 252 249
307 304 300 303 303 280 298 286 283 306 290 285 279 290 276 284 282 292 292 283 288 284 275 266 243 230 228 230 233 237 242 245 250 249 248 249 249 250
318 311 305 307 304 316 297 300 303 289 288 284 283 283 284 286 273 288 294 289 281 283 270 266 251 236 230 231 232 235 239 246 250 250 245 243 245 248
328 324 324 317 306 302 295 296 287 284 291 289 277 289 285 287 282 283 286 285 278 290 275 256 250 241 235 234 233 236 239 242 246 250 255 252 248 248
334 337 334 330 323 317 313 296 294 295 293 289 287 291 284 276 282 287 286 286 281 278 272 265 247 253 239 237 232 234 236 235 242 251 254 251 250 252
358 357 358 357 348 341 335 330 321 313 309 304 304 302 298 290 299 294 284 286 285 285 274 265 249 237 233 231 230 231 231 236 241 248 254 256 255 256
5 9 7 4 3 357 352 353 354 346 341 336 327 323 324 316 305 287 280 280 270 274 270 267 249 238 231 223 224 223 227 233 241 246 250 257 264 261
359 357 358 356 355 -0 2 356 352 350 345 345 347 345 345 345 332 316 301 277 257 261 256 239 233 226 224 219 216 224 232 239 249 259 262 263 266 267
346 344 343 343 342 343 344 346 348 345 335 325 314 311 315 321 331 335 329 325 267 261 245 230 233 227 219 222 224 226 233 245 259 267 269 268 266 265
335 334 333 332 333 332 332 332 337 336 333 326 318 301 293 293 292 291 289 291 280 240 224 181 176 184 205 218 221 231 256 268 268 269 272 267 263 264
334 332 324 323 326 324 324 325 325 325 325 326 326 329 326 320 333 305 330 299 288 277 258 256 244 230 231 244 245 254 263 264 270 274 268 270 269 265
334 332 331 329 322 317 316 317 318 316 315 316 317 317 315 317 304 299 290 311 313 285 280 220 227 224 227 222 235 251 264 271 266 260 269 268 278 289
335 336 336 333 327 321 317 314 314 310 306 306 306 307 304 307 308 289 291 277 265 260 258 250 239 221 228 246 262 267 281 273 257 255 272 290 296 308
335 333 329 327 317 313 310 310 308 309 309 305 303 299 295 291 273 276 282 281 281 264 238 243 245 250 248 265 284 288 293 285 276 249 275 299 310 306
333 335 327 322 313 306 304 307 307 311 308 306 302 297 290 281 273 259 259 260 264 255 256 251 249 259 261 270 275 280 287 282 297 253 261 307 299 268
321 322 327 326 323 323 322 315 309 306 302 299 301 297 276 275 277 256 254 253 257 258 264 262 265 272 274 269 279 282 281 269 259 230 257 295 269 208
323 316 313 316 312 317 316 315 311 303 299 297 287 282 278 273 273 270 256 253 253 253 262 269 278 273 267 271 276 271 265 229 203 195 228 215 154 172
311 318 311 307 307 308 312 306 304 300 296 292 288 283 276 271 265 269 255 247 240 241 253 268 258 248 247 265 270 214 238 200 191 183 156 129 133 130
346 346 334 319 309 310 309 303 297 296 291 286 287 287 286 274 269 266 252 233 227 234 254 253 226 217 240 273 240 196 169 205 193 169 142 120 112 114
352 351 352 342 324 310 305 301 290 290 295 294 292 291 292 278 263 256 234 214 220 235 252 244 215 195 251 243 199 166 169 190 187 162 142 128 124 122
355 348 347 350 4 354 323 305 301 301 299 308 298 299 293 276 257 239 213 206 221 229 235 216 192 192 224 204 181 161 157 167 168 158 147 137 129 125
349 343 343 343 347 3 3 344 326 327 322 319 312 312 305 279 243 210 198 198 212 204 219 187 177 188 209 189 170 154 147 150 154 148 139 131 123 122
Wind_Speed_850mb
71 73 71 73 77 84 83 81 74 38 26 42 45 53 50 50 55 63 61 55 45 48 55 69 77 77 77 76 74 66 65 64 60 58 58 54 53 55
48 60 72 75 67 63 77 84 60 26 36 50 56 57 55 53 53 56 63 53 53 51 59 64 73 77 79 78 78 74 70 66 61 59 58 58 59 58
45 50 53 52 50 48 68 79 61 52 50 70 60 62 65 57 58 54 60 60 55 55 59 58 68 80 82 82 80 80 74 68 64 61 61 61 61 63
40 39 45 43 46 35 35 46 52 51 54 63 66 61 78 67 72 76 76 65 56 61 60 59 64 75 81 84 85 84 77 70 64 57 57 61 65 63
38 39 40 40 41 42 41 38 40 39 45 63 61 67 69 75 70 66 77 79 72 74 65 61 61 77 83 89 90 86 78 71 60 56 55 59 64 65
35 35 36 39 39 39 37 40 44 46 45 47 45 49 53 69 74 76 72 70 77 77 79 77 75 79 90 93 95 92 83 69 61 54 52 58 63 67
30 32 33 32 33 37 39 42 42 43 42 42 42 42 46 48 39 60 73 71 79 79 79 84 91 87 88 101 99 92 79 66 59 54 54 56 60 64
33 33 33 32 33 35 35 35 36 40 41 40 42 43 40 37 38 42 54 64 86 82 81 85 93 94 98 110 101 78 63 56 53 57 64 64 66 71
32 34 35 36 35 34 32 31 26 24 26 28 27 31 32 37 43 39 37 40 50 42 48 65 68 76 93 87 61 50 49 45 48 50 58 64 72 78
34 37 37 34 32 33 33 31 31 31 29 23 21 22 24 24 24 21 20 16 15 25 23 40 54 53 44 42 42 42 45 48 50 55 73 73 75 77
36 35 37 38 36 32 34 33 30 30 27 26 24 28 32 37 39 40 38 30 23 16 11 5 24 33 40 45 53 52 44 43 53 67 68 66 67 69
38 35 29 31 34 36 37 37 37 35 37 33 28 25 23 19 15 12 14 18 22 23 29 33 31 36 37 46 38 30 34 46 49 45 48 51 47 52
42 43 40 34 30 31 37 39 41 41 39 36 33 27 23 19 14 17 15 12 7 12 10 15 15 20 18 12 20 29 38 36 31 32 37 39 40 52
43 44 43 39 34 32 33 36 42 42 37 36 34 30 24 17 15 15 16 13 11 15 14 11 12 17 20 22 22 21 23 21 27 27 34 38 46 62
43 40 38 36 35 33 35 39 39 36 34 33 31 28 23 19 16 14 13 12 11 9 7 12 18 20 21 23 25 28 22 21 23 33 36 33 52 47
49 47 39 38 35 36 36 33 31 30 29 28 29 25 21 18 17 16 14 13 16 19 21 20 22 23 25 27 27 24 18 17 15 23 25 28 32 22
50 50 47 44 41 39 36 31 29 27 26 24 23 23 20 21 20 15 18 19 21 19 18 21 20 23 23 19 18 14 17 13 12 19 14 21 16 20
47 47 46 46 42 40 40 38 31 28 25 24 24 23 23 24 24 22 21 21 22 22 21 20 20 13 12 13 13 11 8 5 14 18 6 8 17 25
48 46 45 48 49 40 38 37 35 28 25 26 27 26 27 27 25 25 20 22 23 23 21 19 13 12 14 11 9 8 5 11 22 22 17 20 32 32
47 50 48 46 45 44 37 35 32 29 28 28 28 23 24 25 24 22 21 21 21 19 17 15 15 15 12 12 10 12 12 17 24 29 39 47 52 49
48 53 53 51 44 41 35 34 31 28 25 24 23 22 25 21 21 20 17 18 18 16 14 12 13 17 8 10 12 18 20 20 25 38 55 61 64 64
49 55 57 51 38 34 26 24 22 22 20 21 19 21 19 18 19 17 19 20 16 12 8 9 15 19 13 15 22 29 29 27 33 48 60 69 76 68
48 53 53 50 46 33 19 9 10 11 16 18 18 17 15 13 12 15 17 18 14 12 8 14 19 21 16 19 30 35 37 42 50 58 63 53 56 62
Wind_Direction_850mb
291 292 293 292 292 290 287 279 258 248 241 268 266 263 259 257 279 276 268 268 276 273 266 247 245 240 234 235 238 240 244 248 251 254 253 252 253 252
297 294 292 294 298 309 291 272 244 252 270 279 280 279 276 275 292 280 279 278 283 284 276 254 241 234 230 229 233 238 243 244 251 253 251 253 252 249
307 304 300 303 303 280 298 286 283 306 290 285 279 290 276 284 282 292 292 283 288 284 275 266 243 230 228 230 233 237 242 245 250 249 248 249 249 250
318 311 305 307 304 316 297 300 303 289 288 284 283 283 284 286 273 288 294 289 281 283 270 266 251 236 230 231 232 235 239 246 250 250 245 243 245 248
328 324 324 317 306 302 295 296 287 284 291 289 277 289 285 287 282 283 286 285 278 290 275 256 250 241 235 234 233 236 239 242 246 250 255 252 248 248
334 337 334 330 323 317 313 296 294 295 293 289 287 291 284 276 282 287 286 286 281 278 272 265 247 253 239 237 232 234 236 235 242 251 254 251 250 252
358 357 358 357 348 341 335 330 321 313 309 304 304 302 298 290 299 294 284 286 285 285 274 265 249 237 233 231 230 231 231 236 241 248 254 256 255 256
5 9 7 4 3 357 352 353 354 346 341 336 327 323 324 316 305 287 280 280 270 274 270 267 249 238 231 223 224 223 227 233 241 246 250 257 264 261
359 357 358 356 355 -0 2 356 352 350 345 345 347 345 345 345 332 316 301 277 257 261 256 239 233 226 224 219 216 224 232 239 249 259 262 263 266 267
346 344 343 343 342 343 344 346 348 345 335 325 314 311 315 321 331 335 329 325 267 261 245 230 233 227 219 222 224 226 233 245 259 267 269 268 266 265
335 334 333 332 333 332 332 332 337 336 333 326 318 301 293 293 292 291 289 291 280 240 224 181 176 184 205 218 221 231 256 268 268 269 272 267 263 264
334 332 324 323 326 324 324 325 325 325 325 326 326 329 326 320 333 305 330 299 288 277 258 256 244 230 231 244 245 254 263 264 270 274 268 270 269 265
334 332 331 329 322 317 316 317 318 316 315 316 317 317 315 317 304 299 290 311 313 285 280 220 227 224 227 222 235 251 264 271 266 260 269 268 278 289
335 336 336 333 327 321 317 314 314 310 306 306 306 307 304 307 308 289 291 277 265 260 258 250 239 221 228 246 262 267 281 273 257 255 272 290 296 308
335 333 329 327 317 313 310 310 308 309 309 305 303 299 295 291 273 276 282 281 281 264 238 243 245 250 248 265 284 288 293 285 276 249 275 299 310 306
333 335 327 322 313 306 304 307 307 311 308 306 302 297 290 281 273 259 259 260 264 255 256 251 249 259 261 270 275 280 287 282 297 253 261 307 299 268
321 322 327 326 323 323 322 315 309 306 302 299 301 297 276 275 277 256 254 253 257 258 264 262 265 272 274 269 279 282 281 269 259 230 257 295 269 208
323 316 313 316 312 317 316 315 311 303 299 297 287 282 278 273 273 270 256 253 253 253 262 269 278 273 267 271 276 271 265 229 203 195 228 215 154 172
311 318 311 307 307 308 312 306 304 300 296 292 288 283 276 271 265 269 255 247 240 241 253 268 258 248 247 265 270 214 238 200 191 183 156 129 133 130
346 346 334 319 309 310 309 303 297 296 291 286 287 287 286 274 269 266 252 233 227 234 254 253 226 217 240 273 240 196 169 205 193 169 142 120 112 114
352 351 352 342 324 310 305 301 290 290 295 294 292 291 292 278 263 256 234 214 220 235 252 244 215 195 251 243 199 166 169 190 187 162 142 128 124 122
355 348 347 350 4 354 323 305 301 301 299 308 298 299 293 276 257 239 213 206 221 229 235 216 192 192 224 204 181 161 157 167 168 158 147 137 129 125
349 343 343 343 347 3 3 344 326 327 322 319 312 312 305 279 243 210 198 198 212 204 219 187 177 188 209 189 170 154 147 150 154 148 139 131 123 122